weather.gov     
National Weather Service

Regional Weather Roundup
NWS Homepage
This page is being discontinued on March 12, 2014.
The same data is available at this site. Please update your bookmarks.
Thank you, and we apologize for the inconvenience.
Please send an email to SR-SRH.Webmaster@noaa.gov with any concerns.


Current Version
Previous Version:    01  02  03  04  05  06  07  08  09  10  11  12  13  14  15  16  17  18  19  20  21  22  23  24  25  26  27  28  29  30  
   31  32  33  34  35  36  37  38  39  40  41  42  43  44  45  46  47  48  49  50  51  52  53  54  55  56  57  58  59  60  
[Printable]
377
ASUS44 KOHX 161315
RWROHX
MIDDLE TENNESSEE HOURLY WEATHER ROUNDUP
NATIONAL WEATHER SERVICE NASHVILLE TN
800 AM CDT TUE SEP 16 2014

NOTE: "FAIR" INDICATES FEW OR NO CLOUDS BELOW 12,000 FEET WITH
NO SIGNIFICANT WEATHER AND/OR OBSTRUCTIONS TO VISIBILITY.

* THESE REPORTS ARE NOT UNDER NWS QUALITY CONTROL AND MAY NOT
  REPORT WEATHER SUCH AS PRECIPITATION AND FOG.


TNZ005>011-023>034-057-059-062>066-078-080-161400
...NORTHERN MIDDLE TENNESSEE...

CITY           SKY/WX    TMP DP  RH WIND       PRES   REMARKS
CLARKSVILLE    CLOUDY    63  61  93 N10       30.14R FOG
CROSSVILLE     CLOUDY    68  61  78 NW5       30.16S
GALLATIN       CLOUDY    68  67  96 NW3       30.13R
DICKSON          N/A     64  63  94 N6        30.13R
LEBANON        CLOUDY    68  64  86 NW5       30.11R
LIVINGSTON     CLOUDY    65  63  93 CALM      30.14
NASHVILLE      PTSUNNY   69  64  84 VRB5      30.12S
WEST NASHVILLE PTSUNNY   66  66 100 NW6       30.12R
PORTLAND       CLOUDY    64  63  94 N3        30.12R
SMYRNA         PTSUNNY   67  65  93 CALM      30.13S
SPARTA         CLOUDY    66  66 100 CALM      30.12F
$$
TNZ056-058-060-061-075>077-079-093>097-161400
...SOUTHERN MIDDLE TENNESSEE...

CITY           SKY/WX    TMP DP  RH WIND       PRES   REMARKS
COLUMBIA       MOSUNNY   66  66 100 CALM      30.12R
FAYETTEVILLE   SUNNY     68  64  88 N9G199    30.13S
LEWISBURG      PTSUNNY   65  64  96 CALM      30.12S
MCMINNVILLE    CLOUDY    70  70 100 CALM      30.13F
MURFREESBORO   PTSUNNY   67  64  90 CALM      30.12S
SHELBYVILLE    PTSUNNY   66  64  94 CALM      30.14S
TULLAHOMA      SUNNY     68  63  83 CALM      30.14S
WINCHESTER     CLOUDY    66  66 100 CALM      30.14S VSB 3/4
$$


...KEY TO REMARKS...
VSB - VISIBILITY IN MILES
WCI - WIND CHILL INDEX
HX  - HEAT INDEX





U.S. Dept. of Commerce
NOAA National Weather Service
1325 East West Highway
Silver Spring, MD 20910
E-mail: w-nws.webmaster@noaa.gov
Page last modified: May 16, 2007
NATIONAL WEATHER SERVICE: for Safety, for Work, for Fun - FOR LIFE